[[{"header":{"parameterUnit":"m.s-1","parameterCategory":2,"la1":30.2991,"la2":30.254,"lo1":-89.0895,"lo2":-89.0444,"dy":0.0017,"dx":0.0017,"nx":28,"ny":28,"refTime":"2023-09-06T03:00:00:Z","depth":"0","parameterNumber":2,"parameterNumberName":"U-component_of_CURRENTS"},"data":[0,0,0,0,0,0,0,0,0,0,0,0,0,0,0,0,0,0,0,0,0,0,0,0,0,0,0,0,0,0,0,0,0,0,0,0,0,0,0,0,0,0,0,0,0,0,0,0,0,0,0,0,0,0,0,0,0,0,0.2794,0.2791,0,0.2631,0.2631,0.263,0.2607,0.2607,0.2607,0.2607,0.27,0.2703,0.2705,0,0,0,0,0,0,0,0,0,0,0,0,0,0.3025,0.3022,0.2794,0.2791,0.2788,0.2631,0.2631,0.263,0.2607,0.2607,0.2607,0.2607,0.27,0.2702,0.2705,0,0,0,0,0,0,0,0,0,0,0,0,0,0.2914,0.3021,0.2795,0.2746,0.2739,0.2632,0.2631,0.263,0.2607,0.2607,0.2607,0.2608,0.2699,0.2702,0.2705,0.2723,0,0,0.2716,0.2718,0,0,0,0,0,0,0,0,0.292,0.2907,0.2757,0.2749,0.2741,0.2627,0.2744,0.2668,0.2607,0.2673,0.2607,0.2608,0.269,0.2694,0.268,0.2727,0.2731,0.2716,0.2719,0.272,0.2721,0,0,0,0,0,0,0,0.2928,0.2914,0.2745,0.2753,0.2743,0.271,0.2697,0.273,0.2698,0.2667,0.2661,0.2619,0.2689,0.2677,0.2683,0.2732,0.2716,0.2719,0.2722,0.2723,0.2846,0.2847,0,0,0,0,0,0,0.2921,0.2921,0.275,0.2738,0.2816,0.2705,0.2691,0.2675,0.2692,0.2688,0.2619,0.2619,0.2671,0.2679,0.2686,0.2742,0.272,0.2723,0.2725,0.2845,0.2847,0.2848,0,0,0,0,0,0,0.2927,0.2908,0.2756,0.2813,0.2789,0.27,0.2683,0.2672,0.2649,0.265,0.2655,0.2605,0.2671,0.2681,0.2723,0.2744,0.2725,0.2728,0.2844,0.2846,0.2847,0.2832,0,0,0,0,0,0,0.2935,0.2913,0.291,0.2813,0.2785,0.2686,0.2681,0.2668,0.2616,0.2614,0.264,0.2649,0.2672,0.2718,0.2727,0.2749,0.2731,0.2842,0.2845,0.2847,0.2831,0.2833,0.2835,0,0,0,0,0,0.2944,0.2942,0.2912,0.289,0.2782,0.2683,0.2668,0.2615,0.2615,0.26,0.2633,0.2647,0.2739,0.2721,0.2732,0.2755,0.2841,0.2844,0.2847,0.283,0.2833,0.2835,0,0,0,0,0,0,0.3039,0.2934,0.29,0.2866,0.2772,0.2674,0.2655,0.2611,0.2618,0.2635,0.2658,0.2669,0.272,0.2738,0.2718,0.2799,0.2795,0.2799,0.2779,0.2782,0.2784,0.2759,0.2734,0,0,0,0,0,0.3054,0.3028,0.2908,0.2876,0.2839,0.2747,0.2704,0.2655,0.263,0.263,0.2644,0.2685,0.2738,0.2758,0.2801,0.2835,0.2835,0.286,0.2862,0.2863,0.2852,0.2881,0.2884,0.2857,0.2857,0.2857,0,0,0.308,0.3013,0.3,0.2893,0.2833,0.2762,0.2728,0.2656,0.2616,0.2647,0.2647,0.2694,0.2752,0.2798,0.2822,0.2814,0.2869,0.2867,0.2867,0.2855,0.2884,0.2886,0.2888,0.2858,0.2858,0.2858,0,0,0.3098,0.3064,0.3039,0.2958,0.2839,0.278,0.2755,0.2656,0.2645,0.2627,0.2667,0.2719,0.276,0.2811,0.2846,0.2883,0.2883,0.2902,0.2884,0.2913,0.2914,0.2916,0.2899,0.29,0.2895,0.2895,0.2895,0,0.3127,0.3065,0.3013,0.2945,0.2866,0.2788,0.2715,0.2694,0.2622,0.2631,0.2629,0.2718,0.2768,0.2845,0.2862,0.2887,0.2882,0.2868,0.2912,0.2914,0.2916,0.2899,0.2899,0.2895,0.2895,0.2895,0.2895,0,0.3102,0.3042,0.3019,0.2912,0.284,0.2761,0.2686,0.2668,0.2645,0.2618,0.2671,0.273,0.278,0.2816,0.2851,0.2904,0.2888,0.2915,0.2899,0.2917,0.2899,0.2899,0.2894,0.2894,0.2895,0.2895,0,0,0.3158,0.3029,0.3013,0.2935,0.2801,0.2726,0.2706,0.2645,0.2651,0.2633,0.2648,0.2739,0.2764,0.2806,0.2862,0.2888,0.2903,0.2898,0.29,0.2865,0.2926,0.287,0.2865,0.2933,0.2933,0.2934,0.2899,0,0.313,0.3022,0.2956,0.2824,0.2743,0.2673,0.2656,0.2612,0.2612,0.263,0.2695,0.2746,0.2764,0.2809,0.2833,0.2906,0.2907,0.2907,0.2926,0.2926,0.2862,0.2866,0.2757,0.2713,0.2899,0.2899,0.2899,0,0.3088,0.3015,0.2908,0.2759,0.2724,0.2654,0.2599,0.257,0.2612,0.263,0.2677,0.2727,0.2791,0.2805,0.2865,0.286,0.2879,0.2911,0.2911,0.2863,0.2872,0.2732,0.2707,0.2645,0.29,0.29,0.29,0,0.3103,0.2951,0.287,0.2807,0.2672,0.2635,0.2578,0.2581,0.2584,0.2644,0.2674,0.273,0.2783,0.281,0.2868,0.2868,0.2917,0.2932,0.2883,0.2878,0.279,0.2776,0.2694,0.295,0.295,0.295,0.295,0,0.3053,0.2966,0.2872,0.2809,0.2706,0.2631,0.2576,0.2562,0.2597,0.2612,0.2678,0.272,0.279,0.2832,0.2857,0.2861,0.2902,0.2865,0.287,0.278,0.2766,0.2713,0.2705,0.2949,0.2949,0.2949,0.2949,0,0.3033,0.2985,0.2863,0.2749,0.2695,0.2627,0.2522,0.2515,0.2571,0.2601,0.2627,0.2717,0.2771,0.2818,0.288,0.2852,0.2782,0.2863,0.2728,0.2717,0.2587,0.2582,0.2387,0.2324,0.2775,0.2773,0.2772,0,0.3007,0.2954,0.2819,0.2733,0.2657,0.2555,0.2492,0.2493,0.2498,0.2595,0.2616,0.2704,0.2751,0.2796,0.2782,0.2775,0.2728,0.2651,0.2637,0.2546,0.2546,0.244,0.2395,0.2504,0.25,0.2498,0.2495,0,0.2936,0.2914,0.2823,0.2653,0.2547,0.245,0.2375,0.2389,0.2435,0.2483,0.2559,0.262,0.2686,0.2645,0.2645,0.2629,0.2505,0.2592,0.2546,0.2354,0.2185,0.2139,0.2538,0.2471,0.2473,0.2475,0.2477,0.2478,0.2885,0.2802,0.2688,0.2501,0.2408,0.2333,0.2254,0.2256,0.2266,0.2324,0.2448,0.2489,0.2519,0.2512,0.2473,0.2329,0.2343,0.2245,0.2251,0.2154,0.2068,0.2388,0.2308,0.231,0.2311,0.2312,0.2313,0,0.2764,0.2655,0.2505,0.2311,0.2195,0.2185,0.2142,0.2097,0.2085,0.2193,0.2247,0.2276,0.223,0.223,0.212,0.2008,0.191,0.1943,0.1784,0.1767,0.2093,0.206,0.1864,0.1864,0.1864,0.1864,0.1864,0.1864,0.268,0.2492,0.2386,0.212,0.2019,0.1881,0.1861,0.1849,0.1893,0.1906,0.1928,0.1996,0.2055,0.1972,0.1829,0.1772,0.164,0.1524,0.1554,0.1819,0.1848,0.1876,0.1841,0.1602,0.1602,0.1129,0.1126,0.1123]},{"header":{"parameterUnit":"m.s-1","parameterCategory":2,"la1":30.2991,"la2":30.254,"lo1":-89.0895,"lo2":-89.0444,"dy":0.0017,"dx":0.0017,"nx":28,"ny":28,"refTime":"2023-09-06T03:00:00:Z","depth":"0","parameterNumber":3,"parameterNumberName":"V-component_of_CURRENTS"},"data":[0,0,0,0,0,0,0,0,0,0,0,0,0,0,0,0,0,0,0,0,0,0,0,0,0,0,0,0,0,0,0,0,0,0,0,0,0,0,0,0,0,0,0,0,0,0,0,0,0,0,0,0,0,0,0,0,0,0,0.0596,0.0596,0,0.0544,0.0543,0.0542,0.0504,0.0505,0.0505,0.0505,0.0434,0.0432,0.043,0,0,0,0,0,0,0,0,0,0,0,0,0,0.0527,0.0529,0.0596,0.0596,0.0596,0.0544,0.0543,0.0541,0.0504,0.0505,0.0505,0.0505,0.0435,0.0432,0.043,0,0,0,0,0,0,0,0,0,0,0,0,0,0.052,0.053,0.0596,0.0575,0.0573,0.0544,0.0542,0.0541,0.0504,0.0505,0.0505,0.0505,0.0435,0.0432,0.0429,0.0404,0,0,0.042,0.0418,0,0,0,0,0,0,0,0,0.052,0.0522,0.0578,0.0577,0.0574,0.0536,0.0492,0.0496,0.0504,0.0525,0.0505,0.0505,0.0469,0.0463,0.0446,0.0401,0.0398,0.0419,0.0418,0.0416,0.0415,0,0,0,0,0,0,0,0.0521,0.0523,0.057,0.0578,0.0576,0.0521,0.0521,0.0492,0.0492,0.0523,0.0522,0.0524,0.0467,0.0449,0.0444,0.0397,0.042,0.0417,0.0415,0.0414,0.0356,0.0356,0,0,0,0,0,0,0.0546,0.0525,0.0572,0.0569,0.0553,0.0524,0.0523,0.0543,0.0492,0.0487,0.0524,0.0523,0.0454,0.0447,0.0441,0.044,0.0416,0.0413,0.0412,0.0356,0.0356,0.0356,0,0,0,0,0,0,0.0545,0.0551,0.0574,0.0548,0.0548,0.0526,0.0548,0.0542,0.0528,0.0494,0.0487,0.0517,0.0454,0.0446,0.0426,0.0436,0.0412,0.0409,0.0355,0.0356,0.0356,0.0418,0,0,0,0,0,0,0.0543,0.0551,0.0558,0.0551,0.0551,0.0559,0.0548,0.0541,0.0531,0.0529,0.0485,0.0479,0.0453,0.0431,0.0423,0.0431,0.0407,0.0355,0.0355,0.0356,0.0415,0.042,0.0424,0,0,0,0,0,0.0541,0.0556,0.056,0.0564,0.0568,0.056,0.0553,0.0534,0.0531,0.0521,0.0502,0.048,0.0429,0.0428,0.0419,0.0427,0.0355,0.0355,0.0356,0.0413,0.0419,0.0424,0,0,0,0,0,0,0.0517,0.0554,0.0557,0.058,0.0573,0.0556,0.0551,0.0537,0.0512,0.0515,0.0481,0.0472,0.0458,0.0433,0.0433,0.0412,0.0389,0.0388,0.0436,0.0441,0.0446,0.0462,0.0404,0,0,0,0,0,0.0522,0.0549,0.0561,0.0573,0.0582,0.0567,0.0558,0.0548,0.0533,0.0522,0.0495,0.0471,0.0452,0.0441,0.0414,0.04,0.0381,0.04,0.0405,0.0409,0.0415,0.0406,0.041,0.0359,0.0359,0.0359,0,0,0.0514,0.0537,0.0549,0.057,0.0569,0.0574,0.0561,0.056,0.0555,0.0519,0.0503,0.0482,0.0451,0.0439,0.043,0.0421,0.0411,0.041,0.0414,0.0418,0.0407,0.0412,0.0417,0.0359,0.0359,0.0359,0,0,0.0524,0.0542,0.0575,0.0574,0.0587,0.0575,0.0581,0.0572,0.0564,0.0548,0.0528,0.052,0.0476,0.0467,0.0455,0.0468,0.0434,0.0455,0.0494,0.0485,0.0489,0.0493,0.047,0.0471,0.0461,0.0461,0.0461,0,0.0509,0.0559,0.0572,0.0597,0.0595,0.0583,0.0596,0.0585,0.0562,0.0566,0.0552,0.0519,0.0493,0.0494,0.0501,0.048,0.0463,0.0477,0.0492,0.0495,0.0498,0.0473,0.0474,0.0464,0.0464,0.0464,0.0463,0,0.0543,0.0575,0.0593,0.0626,0.0615,0.0625,0.062,0.0614,0.0604,0.0596,0.0595,0.0567,0.0552,0.0544,0.0525,0.0536,0.0512,0.0498,0.0482,0.0507,0.0479,0.0479,0.0469,0.0467,0.0467,0.0466,0,0,0.0534,0.0607,0.0612,0.0633,0.0634,0.0631,0.0634,0.0638,0.0654,0.0633,0.0652,0.0625,0.0622,0.0608,0.0589,0.0584,0.0586,0.0555,0.0553,0.0538,0.0556,0.0534,0.0531,0.0576,0.0576,0.0577,0.0527,0,0.0557,0.0629,0.0636,0.0659,0.0694,0.0672,0.0675,0.067,0.0667,0.0681,0.0673,0.0678,0.0643,0.0648,0.0638,0.0602,0.0588,0.06,0.0527,0.0525,0.0509,0.0531,0.056,0.0518,0.0526,0.0526,0.0526,0,0.0586,0.0636,0.0694,0.0714,0.0723,0.0713,0.0717,0.072,0.0737,0.0742,0.075,0.0741,0.0739,0.0707,0.0658,0.0666,0.0616,0.0583,0.058,0.054,0.0503,0.0493,0.0516,0.0465,0.0524,0.0524,0.0525,0,0.0602,0.0657,0.071,0.0716,0.0746,0.0745,0.0736,0.0744,0.0771,0.079,0.0821,0.0799,0.0806,0.0747,0.0677,0.0668,0.0618,0.0593,0.0523,0.052,0.052,0.0516,0.0492,0.0556,0.0556,0.0556,0.0556,0,0.0629,0.0661,0.0726,0.0754,0.0783,0.0776,0.08,0.0801,0.0834,0.089,0.0862,0.0904,0.0819,0.0783,0.07,0.0613,0.063,0.0534,0.0512,0.054,0.0539,0.0474,0.0441,0.0554,0.0554,0.0555,0.0555,0,0.0646,0.0699,0.0762,0.0806,0.0806,0.0828,0.0838,0.0872,0.0895,0.0971,0.0988,0.0985,0.0941,0.0841,0.0744,0.0652,0.0533,0.0524,0.0555,0.0537,0.0419,0.0389,0.0315,0.03,0.0439,0.0438,0.0437,0,0.0666,0.0717,0.0798,0.0825,0.0841,0.0866,0.0889,0.0907,0.096,0.1034,0.1089,0.1066,0.1081,0.0914,0.0747,0.059,0.0524,0.0491,0.0479,0.0423,0.0373,0.0341,0.0333,0.0497,0.0497,0.0497,0.0497,0,0.07,0.0746,0.0811,0.0867,0.0898,0.0946,0.0982,0.1041,0.1101,0.1173,0.1263,0.1278,0.1133,0.0998,0.0764,0.0646,0.0468,0.0484,0.0429,0.0422,0.0385,0.0357,0.0505,0.0496,0.0496,0.0497,0.0497,0.0497,0.0727,0.0781,0.0863,0.09,0.0952,0.1024,0.107,0.115,0.1259,0.1384,0.139,0.1439,0.1233,0.093,0.0756,0.0468,0.0463,0.0391,0.0359,0.0331,0.0324,0.0462,0.0426,0.0426,0.0425,0.0425,0.0425,0,0.076,0.0809,0.0859,0.0941,0.0996,0.1014,0.1133,0.1211,0.1356,0.1474,0.155,0.1502,0.125,0.097,0.0582,0.039,0.0322,0.0289,0.0268,0.0264,0.0394,0.0406,0.0363,0.0363,0.0363,0.0363,0.0363,0.0363,0.0782,0.0846,0.0868,0.0951,0.1003,0.1106,0.1185,0.132,0.1436,0.1587,0.1642,0.1666,0.1484,0.0794,0.038,0.0291,0.0192,0.0149,0.0095,0.0201,0.0209,0.0216,0.0221,0.0139,0.0139,0.0003,0.0001,0.0]}],[{"header":{"parameterUnit":"m.s-1","parameterCategory":2,"la1":30.2991,"la2":30.254,"lo1":-89.0895,"lo2":-89.0444,"dy":0.0017,"dx":0.0017,"nx":28,"ny":28,"refTime":"2023-09-06T03:00:00:Z","depth":"2","parameterNumber":2,"parameterNumberName":"U-component_of_CURRENTS"},"data":[0,0,0,0,0,0,0,0,0,0,0,0,0,0,0,0,0,0,0,0,0,0,0,0,0,0,0,0,0,0,0,0,0,0,0,0,0,0,0,0,0,0,0,0,0,0,0,0,0,0,0,0,0,0,0,0,0,0,0.2182,0.2183,0,0.2206,0.2206,0.2205,0.2179,0.2178,0.2178,0.2178,0.222,0.2221,0.2222,0,0,0,0,0,0,0,0,0,0,0,0,0,0.2143,0.2143,0.2182,0.2183,0.2184,0.2206,0.2205,0.2205,0.2179,0.2178,0.2178,0.2178,0.2219,0.2221,0.2222,0,0,0,0,0,0,0,0,0,0,0,0,0,0.2154,0.2143,0.2181,0.218,0.2181,0.2206,0.2205,0.2205,0.2179,0.2178,0.2178,0.2178,0.2219,0.2221,0.2223,0.2239,0,0,0.2228,0.2229,0,0,0,0,0,0,0,0,0.2153,0.2154,0.2179,0.218,0.2181,0.2197,0.2208,0.222,0.2179,0.217,0.2178,0.2178,0.222,0.2222,0.2214,0.2241,0.2243,0.2229,0.223,0.2231,0.2231,0,0,0,0,0,0,0,0.2152,0.2153,0.2182,0.2181,0.2182,0.219,0.219,0.2209,0.2189,0.2171,0.2171,0.2188,0.2219,0.2212,0.2215,0.2244,0.2229,0.223,0.2231,0.2232,0.2302,0.2303,0,0,0,0,0,0,0.2167,0.2152,0.2181,0.2184,0.2177,0.2191,0.2191,0.2185,0.2189,0.2192,0.2189,0.2187,0.2209,0.2212,0.2216,0.2265,0.2231,0.2232,0.2233,0.2301,0.2302,0.2303,0,0,0,0,0,0,0.2165,0.2168,0.218,0.2177,0.2181,0.2193,0.2186,0.2186,0.2189,0.2204,0.2205,0.2195,0.2209,0.2213,0.2244,0.2265,0.2233,0.2235,0.23,0.2302,0.2303,0.2344,0,0,0,0,0,0,0.2163,0.2166,0.2173,0.2177,0.2182,0.2199,0.2187,0.2187,0.2204,0.2203,0.221,0.2213,0.2209,0.2241,0.2246,0.2267,0.2236,0.23,0.2301,0.2302,0.2342,0.2347,0.2351,0,0,0,0,0,0.2161,0.2169,0.2172,0.2177,0.2187,0.22,0.2202,0.2204,0.2205,0.2205,0.2217,0.2213,0.2252,0.2243,0.2249,0.2271,0.2299,0.2301,0.2302,0.234,0.2346,0.2351,0,0,0,0,0,0,0.2159,0.2168,0.2171,0.2182,0.2196,0.22,0.2211,0.2215,0.2221,0.2227,0.2228,0.2232,0.2263,0.2263,0.2253,0.2294,0.2273,0.2276,0.23,0.2306,0.231,0.2298,0.2238,0,0,0,0,0,0.2164,0.2165,0.2181,0.2191,0.2199,0.2208,0.2219,0.2222,0.2233,0.2234,0.2239,0.2251,0.2272,0.2286,0.2295,0.2326,0.2318,0.2341,0.2346,0.235,0.2343,0.2362,0.2368,0.2308,0.2308,0.2308,0,0,0.2158,0.2176,0.217,0.2191,0.22,0.2211,0.221,0.2231,0.2238,0.2242,0.225,0.2268,0.2283,0.2309,0.2324,0.2315,0.2361,0.2352,0.2355,0.2346,0.2364,0.237,0.2375,0.2309,0.2309,0.2309,0,0,0.2167,0.2171,0.2178,0.2192,0.2226,0.2227,0.2238,0.2248,0.2248,0.2269,0.2276,0.2308,0.2325,0.2343,0.2356,0.2393,0.2381,0.2398,0.2416,0.2435,0.244,0.2445,0.2435,0.2438,0.2402,0.2402,0.2403,0,0.217,0.2176,0.2185,0.2209,0.2219,0.2235,0.2245,0.2252,0.2269,0.2276,0.2275,0.2317,0.2339,0.2381,0.2396,0.2404,0.24,0.2398,0.2441,0.2445,0.2449,0.2438,0.2441,0.2405,0.2404,0.2404,0.2404,0,0.2183,0.2192,0.2201,0.2222,0.2235,0.2247,0.2263,0.2273,0.2281,0.2289,0.2323,0.2351,0.2375,0.2396,0.2412,0.2456,0.244,0.2444,0.2429,0.2458,0.2444,0.2446,0.2408,0.2407,0.2406,0.2406,0,0,0.2167,0.2199,0.22,0.221,0.224,0.2248,0.2266,0.2281,0.2298,0.2315,0.2335,0.2384,0.2402,0.2417,0.2447,0.2474,0.251,0.2476,0.2476,0.2466,0.2533,0.2478,0.2474,0.2526,0.2527,0.2528,0.251,0,0.217,0.2202,0.2213,0.2226,0.2238,0.2253,0.2265,0.2288,0.2306,0.2331,0.2367,0.2401,0.2409,0.2442,0.2468,0.2509,0.2519,0.2513,0.2506,0.2505,0.2453,0.2477,0.2293,0.2258,0.2512,0.2513,0.2513,0,0.2167,0.2195,0.2207,0.2228,0.2232,0.2243,0.2264,0.2281,0.2324,0.2343,0.238,0.2408,0.2464,0.2466,0.2513,0.251,0.2518,0.2536,0.2535,0.2468,0.2454,0.2272,0.2253,0.2516,0.2516,0.2516,0.2516,0,0.2142,0.2177,0.2182,0.2191,0.2226,0.2233,0.2249,0.2287,0.2304,0.2363,0.2392,0.2435,0.2477,0.2494,0.2533,0.2529,0.2572,0.2567,0.251,0.2505,0.2337,0.2316,0.258,0.258,0.258,0.258,0.258,0,0.212,0.2135,0.2174,0.218,0.219,0.2226,0.2238,0.2266,0.2317,0.2343,0.2402,0.2436,0.2491,0.2524,0.2535,0.2528,0.2567,0.2508,0.2502,0.2345,0.2327,0.2542,0.2538,0.258,0.258,0.258,0.258,0,0.2085,0.2112,0.2128,0.2165,0.2175,0.2186,0.222,0.2235,0.23,0.2342,0.2367,0.2447,0.2492,0.2525,0.2566,0.2531,0.2535,0.2518,0.2319,0.229,0.2445,0.2443,0.2436,0.2434,0.2432,0.2431,0.243,0,0.2063,0.2067,0.2099,0.2103,0.2118,0.2142,0.215,0.2211,0.2235,0.2338,0.2357,0.2435,0.2463,0.2494,0.2462,0.2441,0.2506,0.2242,0.2202,0.2437,0.2433,0.2434,0.2434,0.1988,0.1983,0.1979,0.1976,0,0.2026,0.2038,0.2049,0.2048,0.2057,0.2064,0.2094,0.2112,0.219,0.2233,0.2296,0.2338,0.2383,0.2285,0.2271,0.2235,0.2231,0.2163,0.2464,0.2064,0.2017,0.2012,0.2027,0.1942,0.1945,0.1948,0.195,0.1951,0.1994,0.1982,0.1984,0.1975,0.1982,0.1977,0.1953,0.1999,0.2021,0.2062,0.2168,0.2159,0.2168,0.2059,0.1978,0.1905,0.2061,0.1948,0.1959,0.1974,0.1936,0.189,0.1783,0.1785,0.1787,0.1789,0.1791,0,0.1922,0.1923,0.1906,0.1883,0.1846,0.1886,0.1894,0.1857,0.1841,0.1913,0.1943,0.1789,0.1723,0.1732,0.1571,0.1548,0.1525,0.1474,0.1429,0.1465,0.1497,0.1434,0.1147,0.1145,0.1143,0.1141,0,0,0.1896,0.1858,0.1834,0.1747,0.1731,0.1661,0.1646,0.162,0.1636,0.1599,0.1575,0.1693,0.172,0.1435,0.1376,0.1238,0.1347,0.1186,0.1708,0.1697,0.1726,0.1781,0.1726,0,0,0,0,0]},{"header":{"parameterUnit":"m.s-1","parameterCategory":2,"la1":30.2991,"la2":30.254,"lo1":-89.0895,"lo2":-89.0444,"dy":0.0017,"dx":0.0017,"nx":28,"ny":28,"refTime":"2023-09-06T03:00:00:Z","depth":"2","parameterNumber":3,"parameterNumberName":"V-component_of_CURRENTS"},"data":[0,0,0,0,0,0,0,0,0,0,0,0,0,0,0,0,0,0,0,0,0,0,0,0,0,0,0,0,0,0,0,0,0,0,0,0,0,0,0,0,0,0,0,0,0,0,0,0,0,0,0,0,0,0,0,0,0,0,0.0427,0.0427,0,0.0391,0.039,0.0389,0.0348,0.0348,0.0349,0.0349,0.0267,0.0265,0.0263,0,0,0,0,0,0,0,0,0,0,0,0,0,0.034,0.0342,0.0427,0.0427,0.0427,0.0391,0.039,0.0389,0.0348,0.0348,0.0349,0.0349,0.0268,0.0265,0.0263,0,0,0,0,0,0,0,0,0,0,0,0,0,0.0342,0.0343,0.0427,0.0408,0.0406,0.0392,0.039,0.0389,0.0348,0.0348,0.0349,0.0349,0.0269,0.0265,0.0262,0.0241,0,0,0.0252,0.0251,0,0,0,0,0,0,0,0,0.0342,0.0345,0.041,0.0409,0.0407,0.038,0.033,0.034,0.0348,0.0363,0.0349,0.0349,0.0305,0.0299,0.0283,0.0237,0.0234,0.0252,0.025,0.0248,0.0248,0,0,0,0,0,0,0,0.0342,0.0345,0.0406,0.0411,0.0409,0.0361,0.0361,0.0331,0.0328,0.0362,0.036,0.0368,0.0303,0.0286,0.0281,0.0233,0.0252,0.0249,0.0247,0.0246,0.0183,0.0184,0,0,0,0,0,0,0.0367,0.0346,0.0407,0.0405,0.0382,0.0363,0.0363,0.0383,0.0329,0.0324,0.0368,0.0366,0.0292,0.0285,0.0278,0.0274,0.0248,0.0245,0.0244,0.0183,0.0184,0.0184,0,0,0,0,0,0,0.0366,0.0374,0.0408,0.0379,0.0381,0.0366,0.0388,0.0383,0.0371,0.0336,0.0327,0.0363,0.0292,0.0282,0.026,0.027,0.0244,0.0241,0.0183,0.0183,0.0184,0.0252,0,0,0,0,0,0,0.0364,0.0374,0.0383,0.0382,0.0384,0.0403,0.0388,0.0382,0.0379,0.0376,0.0329,0.0321,0.0291,0.0265,0.0257,0.0265,0.0238,0.0182,0.0183,0.0184,0.0249,0.0254,0.0259,0,0,0,0,0,0.0361,0.038,0.0384,0.0391,0.0403,0.0404,0.0399,0.0383,0.0379,0.0372,0.0347,0.0323,0.0263,0.0263,0.0253,0.026,0.0182,0.0183,0.0183,0.0247,0.0253,0.0259,0,0,0,0,0,0,0.0338,0.0378,0.0383,0.041,0.041,0.04,0.0398,0.0389,0.0363,0.0363,0.0324,0.0314,0.0297,0.0269,0.027,0.0244,0.0219,0.0218,0.027,0.0276,0.0281,0.0298,0.0236,0,0,0,0,0,0.0344,0.0372,0.039,0.0408,0.0418,0.0408,0.0404,0.0398,0.0384,0.0372,0.0344,0.0315,0.0291,0.0278,0.0247,0.0233,0.021,0.0231,0.0236,0.0241,0.0247,0.023,0.0234,0.0186,0.0186,0.0186,0,0,0.0339,0.0365,0.0379,0.0406,0.0407,0.0416,0.0404,0.041,0.041,0.0368,0.0354,0.0328,0.029,0.0275,0.0265,0.0255,0.0241,0.0241,0.0246,0.025,0.0231,0.0236,0.024,0.0187,0.0187,0.0187,0,0,0.0353,0.0373,0.0405,0.0409,0.0427,0.0421,0.0429,0.0426,0.0419,0.0407,0.0381,0.0369,0.0322,0.0306,0.0291,0.0305,0.0266,0.0291,0.0332,0.0316,0.032,0.0323,0.0297,0.0298,0.0296,0.0297,0.0297,0,0.0343,0.0392,0.0406,0.0431,0.0436,0.043,0.0447,0.0438,0.0423,0.0425,0.0411,0.0371,0.034,0.0334,0.034,0.0317,0.0297,0.0315,0.0324,0.0326,0.0329,0.0301,0.0301,0.03,0.03,0.0299,0.0299,0,0.0382,0.0411,0.0428,0.0463,0.0461,0.0475,0.0476,0.0474,0.0467,0.0461,0.0456,0.0421,0.0402,0.0391,0.0369,0.0374,0.0349,0.0331,0.0313,0.0338,0.0307,0.0306,0.0305,0.0304,0.0303,0.0302,0,0,0.0386,0.0447,0.0451,0.0471,0.0481,0.0486,0.0493,0.0503,0.0518,0.05,0.0516,0.0484,0.0477,0.0459,0.0434,0.0423,0.0421,0.0391,0.0388,0.0373,0.0377,0.0365,0.0362,0.0405,0.0405,0.0406,0.0349,0,0.0411,0.0476,0.0486,0.0513,0.0543,0.053,0.0537,0.0539,0.0538,0.0549,0.0534,0.0532,0.0499,0.0499,0.0484,0.0439,0.0421,0.0438,0.0348,0.0346,0.0338,0.0361,0.0372,0.0323,0.0347,0.0347,0.0347,0,0.0447,0.0487,0.0539,0.0562,0.0571,0.0572,0.0585,0.0593,0.0606,0.0609,0.0612,0.0596,0.0588,0.0554,0.0494,0.0506,0.0448,0.0409,0.0405,0.0371,0.0331,0.0301,0.0319,0.0344,0.0344,0.0344,0.0344,0,0.0468,0.0514,0.0561,0.0568,0.0597,0.0602,0.0603,0.0615,0.064,0.0654,0.0678,0.0652,0.0651,0.0585,0.0509,0.05,0.0437,0.0409,0.034,0.0337,0.0318,0.0314,0.036,0.036,0.036,0.036,0.0361,0,0.0499,0.0527,0.0574,0.0599,0.063,0.0631,0.0661,0.0666,0.0695,0.0743,0.0716,0.0744,0.066,0.0617,0.0531,0.0439,0.0449,0.0353,0.0328,0.0341,0.0339,0.0333,0.033,0.0358,0.0359,0.0359,0.0359,0,0.0522,0.056,0.0608,0.0644,0.065,0.0672,0.0698,0.0731,0.0751,0.0814,0.0827,0.0816,0.0763,0.0668,0.056,0.0473,0.038,0.0338,0.0357,0.0335,0.0281,0.0282,0.0255,0.0254,0.0253,0.0253,0.0252,0,0.0543,0.0582,0.0642,0.0664,0.0677,0.0708,0.0736,0.0761,0.0807,0.0864,0.0907,0.0876,0.0873,0.0709,0.0556,0.0402,0.0376,0.0294,0.0279,0.0295,0.0273,0.0275,0.0278,0.0272,0.0272,0.0272,0.0272,0,0.0572,0.0602,0.0647,0.0699,0.073,0.0777,0.082,0.0869,0.0924,0.0981,0.1043,0.1043,0.0902,0.0758,0.0544,0.0434,0.0322,0.0284,0.0301,0.0303,0.0308,0.0287,0.029,0.027,0.027,0.027,0.027,0.027,0.0588,0.062,0.0682,0.072,0.0771,0.0841,0.0886,0.0957,0.1048,0.1139,0.1136,0.1139,0.0966,0.0704,0.051,0.0303,0.032,0.0235,0.0236,0.0238,0.0256,0.0261,0.0216,0.0216,0.0216,0.0216,0.0215,0,0.0603,0.0639,0.0683,0.075,0.0808,0.0834,0.094,0.1003,0.1119,0.1199,0.1249,0.1087,0.0925,0.072,0.0425,0.0245,0.0226,0.0171,0.0193,0.0197,0.02,0.0216,0.0164,0.0164,0.0163,0.0162,0,0,0.061,0.0656,0.0674,0.0758,0.0812,0.0907,0.0974,0.1083,0.1167,0.1243,0.1251,0.1238,0.1002,0.077,0.0526,0.0351,0.031,0.0305,0.0368,0.0428,0.0433,0.0261,0.0294,0,0,0,0,0]}],[{"header":{"parameterUnit":"m.s-1","parameterCategory":2,"la1":30.2991,"la2":30.254,"lo1":-89.0895,"lo2":-89.0444,"dy":0.0017,"dx":0.0017,"nx":28,"ny":28,"refTime":"2023-09-06T03:00:00:Z","depth":"4","parameterNumber":2,"parameterNumberName":"U-component_of_CURRENTS"},"data":[0,0,0,0,0,0,0,0,0,0,0,0,0,0,0,0,0,0,0,0,0,0,0,0,0,0,0,0,0,0,0,0,0,0,0,0,0,0,0,0,0,0,0,0,0,0,0,0,0,0,0,0,0,0,0,0,0,0,0.133,0.1332,0,0.1425,0.1426,0.1426,0.1462,0.1462,0.1463,0.1463,0.1433,0.1431,0.143,0,0,0,0,0,0,0,0,0,0,0,0,0,0.1212,0.1213,0.133,0.1332,0.1334,0.1425,0.1426,0.1426,0.1462,0.1462,0.1463,0.1464,0.1433,0.1432,0.143,0,0,0,0,0,0,0,0,0,0,0,0,0,0.1272,0.1213,0.133,0.137,0.1375,0.1425,0.1426,0.1426,0.1461,0.1462,0.1463,0.1464,0.1434,0.1432,0.143,0.14,0,0,0.1423,0.1423,0,0,0,0,0,0,0,0,0.1268,0.1275,0.1362,0.1367,0.1374,0.1441,0.1374,0.1414,0.1461,0.1419,0.1463,0.1464,0.1429,0.1428,0.1432,0.1398,0.1397,0.1423,0.1422,0.1421,0.1421,0,0,0,0,0,0,0,0.1264,0.1271,0.1358,0.1364,0.1372,0.1395,0.1403,0.1381,0.1408,0.1422,0.1428,0.1453,0.143,0.1434,0.1431,0.1397,0.1423,0.1422,0.142,0.142,0.1426,0.1428,0,0,0,0,0,0,0.1269,0.1267,0.1355,0.1362,0.1333,0.1397,0.1406,0.1411,0.1411,0.1416,0.1452,0.1455,0.1437,0.1434,0.143,0.1465,0.1421,0.1419,0.1418,0.1425,0.1426,0.1428,0,0,0,0,0,0,0.1265,0.1275,0.1352,0.1326,0.1338,0.1399,0.1404,0.1412,0.1456,0.1437,0.1438,0.1493,0.1437,0.1433,0.1434,0.1461,0.1418,0.1417,0.1423,0.1425,0.1427,0.1488,0,0,0,0,0,0,0.1261,0.1272,0.1285,0.1325,0.134,0.1408,0.1404,0.1414,0.1472,0.1477,0.1471,0.1468,0.1438,0.1437,0.1432,0.1457,0.1415,0.1421,0.1424,0.1427,0.1484,0.1492,0.1498,0,0,0,0,0,0.1256,0.1267,0.1284,0.1297,0.1353,0.141,0.142,0.1459,0.1474,0.1499,0.1488,0.147,0.1451,0.1436,0.1429,0.1455,0.142,0.1423,0.1426,0.1481,0.149,0.1498,0,0,0,0,0,0,0.1226,0.1274,0.1294,0.132,0.1378,0.1421,0.1454,0.1483,0.1497,0.1504,0.1475,0.147,0.1485,0.1463,0.1448,0.1468,0.1437,0.1439,0.1481,0.1489,0.1496,0.1517,0.1413,0,0,0,0,0,0.1226,0.1245,0.1305,0.1332,0.1363,0.1415,0.1449,0.1483,0.1504,0.1515,0.1511,0.1501,0.1487,0.1484,0.1471,0.1472,0.147,0.149,0.1498,0.1504,0.1518,0.1534,0.1544,0.1438,0.1438,0.1438,0,0,0.1222,0.1256,0.1267,0.1329,0.1372,0.1422,0.1436,0.1503,0.1539,0.1504,0.154,0.1528,0.1495,0.15,0.1506,0.1488,0.1534,0.1508,0.1513,0.1524,0.1538,0.1548,0.1558,0.144,0.144,0.144,0,0,0.1227,0.1258,0.128,0.1335,0.142,0.1452,0.1483,0.1548,0.1572,0.1605,0.1586,0.1594,0.1582,0.1563,0.1548,0.1588,0.1574,0.1593,0.1639,0.1655,0.1663,0.1671,0.1686,0.1695,0.1593,0.1593,0.1593,0,0.1227,0.1261,0.1301,0.1352,0.1406,0.1471,0.1524,0.1554,0.1611,0.1622,0.163,0.1631,0.1611,0.1603,0.1622,0.1604,0.1614,0.1605,0.1664,0.1671,0.1678,0.1692,0.17,0.1596,0.1596,0.1596,0.1595,0,0.1248,0.1298,0.1325,0.14,0.1457,0.1522,0.1582,0.1626,0.1665,0.169,0.1719,0.1699,0.1701,0.1698,0.1671,0.1707,0.1699,0.1673,0.1641,0.1692,0.1703,0.1711,0.1601,0.16,0.1599,0.1598,0,0,0.1198,0.1312,0.1328,0.1385,0.1496,0.1546,0.1603,0.1665,0.1701,0.1747,0.1782,0.1776,0.1787,0.1773,0.175,0.1765,0.1822,0.1751,0.1751,0.1765,0.1867,0.173,0.1725,0.1809,0.1811,0.1812,0.1857,0,0.1213,0.13,0.1356,0.146,0.1521,0.1599,0.1642,0.1706,0.175,0.1795,0.1797,0.1822,0.1807,0.1818,0.1835,0.1825,0.1846,0.1813,0.1817,0.1817,0.1687,0.173,0.1818,0.1863,0.1865,0.1866,0.1867,0,0.1216,0.1284,0.1372,0.15,0.1532,0.1599,0.1694,0.1746,0.1806,0.1834,0.1871,0.1881,0.1914,0.1895,0.1926,0.1911,0.1907,0.1898,0.1898,0.1756,0.1694,0.18,0.1881,0.1879,0.1878,0.1877,0.1877,0,0.1164,0.1299,0.1368,0.1419,0.1557,0.1609,0.1684,0.176,0.1797,0.1873,0.1907,0.1944,0.1971,0.1985,0.198,0.1967,0.2008,0.1976,0.1849,0.184,0.1923,0.1915,0.2006,0.2006,0.2006,0.2005,0.2005,0,0.1151,0.122,0.1359,0.1406,0.1499,0.1604,0.1686,0.1752,0.1831,0.1868,0.1934,0.1954,0.2,0.202,0.2012,0.1954,0.2035,0.187,0.1843,0.1948,0.1942,0.1929,0.192,0.2007,0.2007,0.2006,0.2006,0,0.1087,0.1172,0.1273,0.1425,0.148,0.1552,0.1699,0.1741,0.183,0.1884,0.1913,0.1983,0.2007,0.2031,0.2047,0.1972,0.1941,0.1899,0.2027,0.2005,0.176,0.1754,0.1766,0.1761,0.1757,0.1754,0.1752,0,0.1058,0.1101,0.1271,0.1338,0.142,0.1538,0.1604,0.1723,0.1763,0.1873,0.1882,0.1947,0.1975,0.1897,0.1933,0.1907,0.1872,0.1846,0.1791,0.1763,0.1737,0.1736,0.1734,0.1746,0.1745,0.1744,0.1743,0,0.1016,0.1077,0.1161,0.1291,0.139,0.1474,0.1585,0.1596,0.1708,0.18,0.1797,0.1792,0.1811,0.1808,0.18,0.1774,0.1857,0.1806,0.1813,0.1761,0.1739,0.1716,0.1719,0.1729,0.1731,0.1733,0.1733,0,0.0987,0.1027,0.1137,0.1248,0.1348,0.1388,0.1456,0.1506,0.1552,0.1665,0.1658,0.1723,0.1796,0.1739,0.1732,0.1698,0.1661,0.1587,0.1605,0.162,0.1545,0.1494,0.1393,0,0,0,0,0,0.0959,0.1003,0.1094,0.1193,0.1272,0.1331,0.1431,0.1486,0.158,0.1535,0.159,0.1597,0.1572,0.1607,0.1539,0.1663,0.1673,0.1574,0.1599,0.1657,0.1672,0.1594,0,0,0,0,0,0,0.0947,0.1024,0.1068,0.1114,0.1157,0.1227,0.1279,0.1348,0.1329,0.1428,0.1428,0.1491,0.1502,0.1595,0.1507,0.1514,0.1491,0.1616,0.1611,0.1648,0.1662,0.1674,0.1599,0,0,0,0,0]},{"header":{"parameterUnit":"m.s-1","parameterCategory":2,"la1":30.2991,"la2":30.254,"lo1":-89.0895,"lo2":-89.0444,"dy":0.0017,"dx":0.0017,"nx":28,"ny":28,"refTime":"2023-09-06T03:00:00:Z","depth":"4","parameterNumber":3,"parameterNumberName":"V-component_of_CURRENTS"},"data":[0,0,0,0,0,0,0,0,0,0,0,0,0,0,0,0,0,0,0,0,0,0,0,0,0,0,0,0,0,0,0,0,0,0,0,0,0,0,0,0,0,0,0,0,0,0,0,0,0,0,0,0,0,0,0,0,0,0,0.0312,0.0312,0,0.0281,0.028,0.0279,0.0255,0.0256,0.0256,0.0256,0.0207,0.0206,0.0204,0,0,0,0,0,0,0,0,0,0,0,0,0,0.026,0.0261,0.0312,0.0312,0.0312,0.0281,0.028,0.0279,0.0255,0.0256,0.0256,0.0256,0.0208,0.0206,0.0204,0,0,0,0,0,0,0,0,0,0,0,0,0,0.0258,0.0262,0.0312,0.0299,0.0298,0.0281,0.028,0.0279,0.0255,0.0256,0.0256,0.0256,0.0208,0.0206,0.0204,0.0187,0,0,0.0197,0.0197,0,0,0,0,0,0,0,0,0.0258,0.0259,0.0301,0.03,0.0299,0.0276,0.0244,0.0249,0.0255,0.0267,0.0256,0.0256,0.0231,0.0227,0.0215,0.0185,0.0182,0.0197,0.0196,0.0195,0.0194,0,0,0,0,0,0,0,0.0258,0.026,0.0295,0.0301,0.03,0.0264,0.0264,0.0244,0.0245,0.0266,0.0265,0.0268,0.0229,0.0217,0.0214,0.0182,0.0197,0.0195,0.0194,0.0193,0.0155,0.0155,0,0,0,0,0,0,0.0275,0.0261,0.0297,0.0295,0.0283,0.0266,0.0266,0.028,0.0246,0.0242,0.0268,0.0267,0.0221,0.0216,0.0212,0.0215,0.0195,0.0193,0.0192,0.0155,0.0155,0.0156,0,0,0,0,0,0,0.0274,0.0279,0.0298,0.0279,0.028,0.0267,0.0282,0.0279,0.0275,0.0248,0.0243,0.0269,0.0221,0.0215,0.0201,0.0212,0.0192,0.019,0.0155,0.0155,0.0155,0.0205,0,0,0,0,0,0,0.0273,0.0279,0.029,0.0281,0.0282,0.0294,0.0283,0.0278,0.0278,0.0276,0.0247,0.0242,0.0221,0.0205,0.0199,0.0209,0.0189,0.0154,0.0155,0.0155,0.0203,0.0207,0.0211,0,0,0,0,0,0.0271,0.0288,0.0291,0.0295,0.03,0.0294,0.0291,0.0279,0.0278,0.0275,0.0258,0.0243,0.0204,0.0203,0.0196,0.0206,0.0154,0.0155,0.0155,0.0202,0.0206,0.0211,0,0,0,0,0,0,0.0266,0.0287,0.029,0.0312,0.0307,0.0292,0.0292,0.0285,0.0269,0.0271,0.0244,0.0237,0.0229,0.021,0.0209,0.0196,0.0178,0.0177,0.0215,0.0219,0.0223,0.0239,0.0187,0,0,0,0,0,0.0274,0.0295,0.0299,0.0314,0.0318,0.0307,0.0304,0.0298,0.0285,0.0279,0.0261,0.0241,0.0224,0.0217,0.0196,0.0188,0.0169,0.0191,0.0195,0.0198,0.0206,0.0183,0.0186,0.0158,0.0158,0.0158,0,0,0.0275,0.029,0.0301,0.0315,0.0312,0.0317,0.0305,0.0307,0.0308,0.0276,0.0272,0.0252,0.0224,0.0216,0.0211,0.0203,0.0195,0.0199,0.0202,0.0208,0.0184,0.0187,0.0189,0.0158,0.0158,0.0158,0,0,0.0289,0.0305,0.0327,0.0326,0.0333,0.0327,0.0333,0.0326,0.0323,0.0316,0.0295,0.0286,0.0257,0.0243,0.0231,0.0243,0.0214,0.0236,0.027,0.0247,0.0249,0.0251,0.023,0.0229,0.024,0.024,0.024,0,0.0289,0.0321,0.0328,0.0342,0.0344,0.0337,0.0348,0.0342,0.0329,0.0333,0.0322,0.0294,0.0271,0.0266,0.027,0.0253,0.0234,0.0256,0.0253,0.0254,0.0255,0.0232,0.0231,0.0243,0.0242,0.0242,0.0242,0,0.0316,0.0337,0.0347,0.0369,0.0368,0.0376,0.0375,0.0377,0.0375,0.037,0.0368,0.0338,0.0325,0.0315,0.0296,0.0295,0.0278,0.0259,0.0244,0.0261,0.0236,0.0234,0.0246,0.0245,0.0245,0.0244,0,0,0.0328,0.0363,0.0366,0.0379,0.0384,0.0387,0.0398,0.0407,0.0422,0.0408,0.0423,0.0396,0.0389,0.0375,0.0352,0.0335,0.0323,0.0305,0.0303,0.0289,0.0273,0.026,0.0256,0.0302,0.0302,0.0302,0.0253,0,0.0347,0.0385,0.0393,0.0414,0.0431,0.0426,0.0437,0.0441,0.0443,0.0454,0.0438,0.0438,0.0409,0.0408,0.0387,0.0341,0.0319,0.0338,0.0254,0.0252,0.0243,0.0254,0.0302,0.0251,0.025,0.025,0.025,0,0.0372,0.0394,0.043,0.0448,0.0456,0.0462,0.0482,0.0492,0.0505,0.0509,0.0511,0.0496,0.0483,0.045,0.0387,0.04,0.0343,0.0302,0.0299,0.027,0.0236,0.0229,0.0245,0.0246,0.0246,0.0246,0.0247,0,0.0386,0.0415,0.0449,0.0453,0.0476,0.0487,0.0497,0.0512,0.0535,0.0549,0.0566,0.0542,0.0535,0.0471,0.0396,0.0389,0.0318,0.0293,0.0227,0.0225,0.0229,0.0227,0.024,0.024,0.024,0.024,0.024,0,0.0404,0.0425,0.0458,0.0474,0.0505,0.051,0.0545,0.0555,0.0582,0.0616,0.06,0.0612,0.0539,0.0494,0.0414,0.0322,0.033,0.0238,0.0214,0.025,0.0252,0.0227,0.0226,0.0238,0.0239,0.0239,0.024,0,0.0415,0.0441,0.0474,0.0505,0.0517,0.0538,0.0576,0.0604,0.0627,0.067,0.068,0.0665,0.0608,0.0528,0.0421,0.0348,0.0258,0.0217,0.0272,0.025,0.0172,0.0174,0.014,0.0139,0.0139,0.0138,0.0138,0,0.0425,0.0449,0.0498,0.0517,0.0531,0.0565,0.0595,0.0627,0.066,0.07,0.0723,0.069,0.0665,0.0516,0.0419,0.0273,0.0241,0.0189,0.0174,0.0183,0.0163,0.0166,0.0169,0.0137,0.0136,0.0136,0.0136,0,0.0431,0.0456,0.0485,0.053,0.0563,0.0607,0.0649,0.0678,0.0724,0.0747,0.0754,0.0692,0.0626,0.0513,0.0404,0.0294,0.0225,0.0181,0.0181,0.0166,0.0178,0.016,0.0164,0.0134,0.0134,0.0134,0.0134,0,0.0433,0.0449,0.0493,0.0526,0.058,0.0631,0.0654,0.069,0.0727,0.077,0.0767,0.0706,0.0674,0.0522,0.0423,0.032,0.028,0.0226,0.0223,0.0225,0.0261,0.029,0.0264,0,0,0,0,0,0.0428,0.0443,0.0477,0.0523,0.0584,0.0615,0.0684,0.0709,0.0758,0.0764,0.0767,0.0707,0.0571,0.0519,0.0412,0.0393,0.0254,0.0261,0.0189,0.012,0.0123,0.015,0,0,0,0,0,0,0.042,0.0455,0.0468,0.0521,0.0553,0.0622,0.0671,0.0705,0.0708,0.0739,0.0672,0.0656,0.0528,0.0629,0.0401,0.0373,0.0306,0.0207,0.0204,0.0119,0.0121,0.0124,0.0152,0,0,0,0,0]}]]